FW1477 Weather Reports


time (UTC)temp
C
wind
direction
speed
KPH
gust
KPH
rain 1hr
cm
rain 24hr
cm
rain mn
cm
humidity
%
barometer
mb
20260831204017 25 0.0 0.0 0.03 0.66 0.36 44 1022.0
20260831203016 25 0.0 0.0 0.03 0.64 0.33 45 1022.2
20260831202057 26 0.0 0.0 0.03 0.64 0.33 43 1022.8
20260831201037 26 0.0 0.0 0.03 0.64 0.33 41 1022.8
20260831200017 26 0.0 0.0 0.03 0.64 0.33 42 1022.6
20260831195016 25 0.0 0.0 0.05 0.64 0.33 41 1023.0
20260831194057 26 0.0 0.0 0.05 0.64 0.33 43 1023.6
20260831193038 26 0.0 0.0 0.03 0.61 0.33 42 1023.7
20260831192016 25 0.0 0.0 0.03 0.61 0.33 44 1023.5
20260831191016 25 0.0 0.0 0.03 0.61 0.33 46 1023.6
20260831190016 25 0.0 0.0 0.03 0.61 0.33 46 1023.8
20260831185016 24 0.0 0.0 0.03 0.61 0.30 47 1023.4
20260831184056 24 0.0 0.0 0.03 0.61 0.30 45 1023.5
20260831183017 24 0.0 0.0 0.03 0.61 0.30 46 1023.6
20260831182016 24 0.0 0.0 0.05 0.61 0.30 45 1023.7
20260831181016 24 0.0 0.0 0.05 0.61 0.30 45 1023.7
20260831180016 25 0.0 0.0 0.05 0.61 0.30 45 1024.4
20260831175016 24 0.0 0.0 0.03 0.58 0.28 47 1024.0
20260831174037 24 0.0 0.0 0.03 0.58 0.28 47 1024.1
20260831173016 23 0.0 0.0 0.03 0.58 0.28 50 1024.2
20260831172016 23 0.0 0.0 0.03 0.56 0.25 52 1024.3
20260831171016 23 0.0 0.0 0.03 0.56 0.25 54 1024.1
20260831170016 22 0.0 0.0 0.03 0.56 0.25 56 1024.2
20260831165016 22 0.0 0.0 0.03 0.56 0.25 56 1023.6
20260831164017 21 0.0 0.0 0.03 0.56 0.25 58 1023.6
20260831163016 21 0.0 0.0 0.05 0.56 0.25 62 1023.4
20260831162017 20 225 1.6 9.7 0.03 0.53 0.23 63 1023.4
20260831161016 20 225 8.0 16.1 0.03 0.53 0.23 67 1023.0
20260831160016 19 225 9.7 14.5 0.03 0.53 0.23 67 1023.1
20260831155017 19 225 6.4 11.3 0.03 0.53 0.23 69 1023.2
20260831154017 19 225 6.4 11.3 0.03 0.53 0.23 70 1022.7
20260831153036 18 225 4.8 11.3 0.03 0.51 0.23 70 1022.8
20260831152015 18 225 3.2 8.0 0.03 0.51 0.23 70 1022.7
20260831151015 18 225 3.2 9.7 0.03 0.51 0.23 71 1022.6
20260831150017 18 225 1.6 8.0 0.03 0.51 0.23 73 1022.6
20260831145036 18 0.0 0.0 0.03 0.51 0.23 75 1022.2
20260831144015 17 225 1.6 8.0 0.05 0.51 0.23 76 1022.3
20260831143037 17 225 4.8 9.7 0.03 0.51 0.20 77 1022.2
20260831142015 17 225 6.4 12.9 0.03 0.51 0.20 78 1022.1
20260831141015 16 225 6.4 11.3 0.03 0.51 0.20 78 1021.6
20260831140016 16 225 4.8 9.7 0.03 0.51 0.20 78 1021.4
20260831135015 16 225 4.8 8.0 0.03 0.51 0.20 81 1021.4
20260831134015 16 225 3.2 8.0 0.03 0.48 0.18 82 1021.3
20260831133015 16 0.0 1.6 0.03 0.48 0.18 82 1021.2
20260831132015 16 225 1.6 4.8 0.03 0.48 0.18 81 1021.0
20260831131015 16 225 4.8 11.3 0.03 0.48 0.18 80 1020.8
20260831130015 16 225 9.7 14.5 0.03 0.48 0.18 80 1020.5
20260831125016 16 225 4.8 9.7 0.05 0.48 0.18 80 1020.3
20260831124015 16 225 3.2 8.0 0.03 0.46 0.15 79 1020.2
20260831123015 16 225 8.0 14.5 0.03 0.46 0.15 80 1020.1
20260831122015 16 225 4.8 12.9 0.03 0.46 0.15 80 1020.0
20260831121015 16 225 8.0 11.3 0.03 0.46 0.15 81 1019.8
20260831120017 16 225 9.7 14.5 0.03 0.46 0.15 82 1019.9
20260831115037 16 225 8.0 12.9 0.03 0.43 0.15 82 1019.9
20260831114018 16 225 6.4 9.7 0.03 0.43 0.15 82 1020.0
20260831113017 16 225 4.8 8.0 0.03 0.43 0.15 81 1020.0
20260831112017 16 225 6.4 9.7 0.03 0.43 0.15 81 1019.9
20260831111017 16 225 6.4 9.7 0.03 0.43 0.15 83 1019.8
20260831110017 16 225 9.7 14.5 0.03 0.43 0.15 82 1019.8
20260831105017 16 225 4.8 9.7 0.03 0.43 0.13 82 1019.9
20260831104017 16 0.0 0.0 0.03 0.43 0.13 82 1019.8
20260831103017 16 225 1.6 8.0 0.03 0.43 0.13 79 1019.9
20260831102017 16 225 6.4 9.7 0.03 0.43 0.13 80 1019.8
20260831101017 16 225 4.8 8.0 0.03 0.43 0.13 81 1019.8
20260831100017 16 225 3.2 6.4 0.05 0.43 0.13 82 1019.8
20260831095017 16 225 4.8 8.0 0.03 0.41 0.10 82 1019.7
20260831094017 16 225 6.4 9.7 0.03 0.41 0.10 81 1019.8
20260831093017 16 225 6.4 11.3 0.03 0.41 0.10 79 1019.8
20260831092018 16 225 4.8 11.3 0.03 0.41 0.10 79 1019.9
20260831091016 16 225 4.8 8.0 0.05 0.41 0.10 78 1019.9
20260831090017 16 225 4.8 8.0 0.03 0.38 0.08 78 1019.9
20260831085037 16 225 6.4 11.3 0.03 0.38 0.08 80 1019.9
20260831084018 16 225 6.4 9.7 0.03 0.38 0.08 79 1020.0
20260831083017 16 225 1.6 8.0 0.05 0.38 0.08 78 1020.2
20260831082016 16 225 1.6 6.4 0.05 0.38 0.08 78 1020.4
20260831081038 16 225 3.2 6.4 0.03 0.36 0.05 79 1020.4
20260831080016 16 225 6.4 9.7 0.03 0.36 0.05 78 1020.3
20260831075016 16 225 8.0 11.3 0.05 0.36 0.05 78 1020.2
20260831074017 16 225 4.8 8.0 0.05 0.36 0.05 79 1020.2
20260831073017 16 225 4.8 8.0 0.03 0.33 0.05 78 1020.3
20260831072017 16 0.0 3.2 0.03 0.33 0.05 79 1020.3
20260831071016 16 0.0 0.0 0.03 0.33 0.05 78 1020.1
20260831070016 16 225 1.6 8.0 0.05 0.33 0.05 78 1020.1
20260831065016 17 0.0 0.0 0.03 0.33 0.03 77 1020.0
20260831064036 16 0.0 1.6 0.03 0.33 0.03 78 1020.0
20260831063016 16 0.0 3.2 0.05 0.33 0.03 78 1020.0
20260831062017 16 225 3.2 9.7 0.05 0.33 0.03 78 1020.0
20260831061016 16 225 8.0 12.9 0.05 0.33 0.03 78 1019.9
20260831060016 16 225 4.8 11.3 0.03 0.30 0.30 78 1019.8
20260831055017 16 225 6.4 11.3 0.05 0.30 0.30 79 1020.0
20260831054016 16 225 4.8 8.0 0.05 0.30 0.30 79 1020.1
20260831053016 16 225 4.8 9.7 0.03 0.28 0.28 80 1020.2
20260831052018 16 225 4.8 8.0 0.03 0.28 0.28 81 1020.2
20260831051016 16 225 1.6 9.7 0.05 0.28 0.28 82 1020.2
20260831050016 16 225 6.4 9.7 0.05 0.28 0.28 81 1020.3
20260831045017 17 225 3.2 8.0 0.03 0.25 0.25 79 1020.1
20260831044016 17 225 4.8 16.1 0.03 0.25 0.25 78 1020.5
20260831043016 17 225 11.3 19.3 0.05 0.25 0.25 74 1020.2
20260831042016 17 225 12.9 20.9 0.05 0.25 0.25 77 1020.1
20260831040037 17 248 12.9 22.5 0.05 0.23 0.23 77 1019.9
20260831035016 17 248 16.1 24.1 0.05 0.23 0.23 78 1019.9
20260831034016 17 225 11.3 17.7 0.05 0.23 0.23 76 1019.9
20260831033036 17 225 11.3 17.7 0.05 0.23 0.23 78 1019.4
20260831032016 16 225 12.9 17.7 0.05 0.23 0.23 79 1019.0
20260831031036 16 225 11.3 16.1 0.05 0.23 0.23 80 1019.1
20260831030017 16 225 9.7 12.9 0.03 0.20 0.20 80 1019.1
20260831025016 16 225 11.3 14.5 0.05 0.20 0.20 80 1018.9
20260831024016 16 225 8.0 12.9 0.05 0.20 0.20 81 1018.9
20260831023016 16 225 8.0 11.3 0.03 0.18 0.18 81 1018.8
20260831022016 16 225 1.6 11.3 0.05 0.18 0.18 80 1018.8
20260831021016 16 0.0 0.0 0.05 0.18 0.18 82 1018.9
20260831020036 16 0.0 0.0 0.05 0.18 0.18 82 1018.8
20260831015037 16 0.0 3.2 0.05 0.15 0.15 82 1018.8
20260831014016 16 0.0 0.0 0.05 0.15 0.15 80 1018.4
20260831013016 16 225 1.6 8.0 0.05 0.15 0.15 80 1018.2
20260831012056 16 225 3.2 9.7 0.05 0.15 0.15 79 1017.9
20260831011015 17 225 8.0 14.5 0.05 0.15 0.15 76 1017.6
20260831010016 17 225 11.3 22.5 0.05 0.13 0.13 72 1017.1
20260831005036 17 225 12.9 20.9 0.05 0.13 0.13 74 1016.5
20260831004017 16 225 16.1 22.5 0.05 0.13 0.13 78 1016.2
20260831003016 16 225 16.1 30.6 0.05 0.10 0.10 79 1016.1
20260831002015 16 225 16.1 29.0 0.05 0.10 0.10 80 1016.3
20260831001017 16 225 20.9 37.0 0.05 0.10 0.10 79 1016.4
20260831000016 16 225 20.9 40.2 0.05 0.08 0.08 81 1016.7
20260830235017 16 225 25.7 41.8 0.05 0.08 0.08 79 1016.5
20260830234015 16 225 22.5 35.4 0.05 0.05 0.05 81 1016.9
20260830233015 16 225 22.5 37.0 0.05 0.05 0.05 82 1017.0
20260830232016 16 225 19.3 33.8 0.05 0.05 0.05 84 1017.2
20260830231036 16 225 20.9 38.6 0.05 0.05 0.05 83 1017.1
20260830230017 17 225 19.3 33.8 0.05 0.05 0.05 81 1016.8
20260830225015 17 225 17.7 29.0 0.03 0.03 0.03 81 1017.2
20260830224015 18 225 19.3 33.8 0.03 0.03 0.03 79 1017.6
20260830223035 18 158 12.9 20.9 0.03 0.03 0.03 79 1017.5
20260830222035 18 158 12.9 24.1 0.00 0.00 0.00 75 1016.8
20260830221015 18 293 3.2 9.7 0.00 0.00 0.00 72 1016.7
20260830220016 18 293 4.8 12.9 0.00 0.00 0.00 75 1016.7
20260830215036 18 45 19.3 53.1 0.00 0.00 0.00 70 1016.4
20260830214015 20 45 8.0 53.1 0.00 0.00 0.00 64 1017.0
20260830213016 25 0.0 0.0 0.00 0.00 0.00 51 1018.0
20260830212037 26 0.0 0.0 0.00 0.00 0.00 38 1018.1
20260830211037 27 0.0 0.0 0.00 0.00 0.00 36 1018.6
20260830210017 28 0.0 0.0 0.00 0.00 0.00 34 1019.2
20260830205016 27 0.0 0.0 0.00 0.00 0.00 36 1019.2